AFL4580 UHWW-UUEE

Flight info

Callsign AFL4580
Flight time N/A
Altitude 35000
Route DOLMA2F DOLMA B356 TD B355 HAB/K0893F340 L168 OSPIR/K0907F360 L168 LALIR A718 BESEG A946 LEBNA DCT UNILA N742 BANTA/K0913F380 N742 UHT T791 KTL T187 ROMTA ROMTA3F
Aircraft B77W/H-SDE1E2E3FGHIJ2J3J4J5M1RWXY/LB1D1

Departure

Time 2026-04-30 19:39
Airport Vladivostok International Airport (UHWW)

Arrival

Time N/A
Airport Sheremetyevo International Airport (UUEE)
Time Latitude Longitude Altitude Speed Heading
2026-04-30 19:22 43.39877 132.16828 55 ft 0 kts 148°
2026-04-30 19:26 43.39895 132.16814 47 ft 2 kts 152°
2026-04-30 19:26 43.39926 132.16798 47 ft 2 kts 191°
2026-04-30 19:26 43.39938 132.16808 47 ft 1 kts 237°
2026-04-30 19:27 43.39939 132.16810 47 ft 0 kts 238°
2026-04-30 19:30 43.39883 132.16677 53 ft 14 kts 240°
2026-04-30 19:30 43.39784 132.16443 48 ft 14 kts 239°
2026-04-30 19:31 43.39731 132.16273 53 ft 8 kts 283°
2026-04-30 19:31 43.39771 132.16208 48 ft 13 kts 326°
2026-04-30 19:31 43.39886 132.16096 49 ft 3 kts 285°
2026-04-30 19:32 43.39883 132.16062 48 ft 4 kts 258°
2026-04-30 19:32 43.39870 132.16011 50 ft 10 kts 246°
2026-04-30 19:32 43.39803 132.15838 54 ft 31 kts 241°
2026-04-30 19:32 43.39697 132.15572 51 ft 31 kts 241°
2026-04-30 19:33 43.39595 132.15323 49 ft 30 kts 240°
2026-04-30 19:33 43.39495 132.15074 48 ft 26 kts 241°
2026-04-30 19:33 43.39413 132.14872 50 ft 24 kts 241°
2026-04-30 19:33 43.39334 132.14674 51 ft 24 kts 241°
2026-04-30 19:34 43.39254 132.14476 50 ft 24 kts 241°
2026-04-30 19:34 43.39175 132.14277 50 ft 24 kts 241°
2026-04-30 19:34 43.38983 132.13812 49 ft 44 kts 240°
2026-04-30 19:35 43.38848 132.13475 48 ft 29 kts 244°
2026-04-30 19:35 43.38780 132.13288 46 ft 14 kts 251°
2026-04-30 19:35 43.38793 132.13194 47 ft 9 kts 311°
2026-04-30 19:35 43.38808 132.13177 47 ft 0 kts 322°
2026-04-30 19:36 43.38938 132.13128 46 ft 9 kts 31°
2026-04-30 19:37 43.38978 132.13197 55 ft 9 kts 58°
2026-04-30 19:37 43.38992 132.13229 27 ft 0 kts 60°
2026-04-30 19:38 43.38992 132.13231 46 ft 4 kts 60°
2026-04-30 19:38 43.39126 132.13559 48 ft 89 kts 61°
2026-04-30 19:39 43.39604 132.14742 51 ft 192 kts 61°
2026-04-30 19:39 43.40344 132.16605 472 ft 249 kts 62°
2026-04-30 19:39 43.41174 132.18758 1743 ft 253 kts 65°
2026-04-30 19:39 43.42015 132.20961 2488 ft 270 kts 64°
2026-04-30 19:40 43.42948 132.23284 3121 ft 284 kts 63°
2026-04-30 19:40 43.43949 132.25633 4096 ft 285 kts 62°
2026-04-30 19:40 43.44947 132.27998 5037 ft 288 kts 62°
2026-04-30 19:40 43.45929 132.30425 5996 ft 289 kts 61°
2026-04-30 19:41 43.46892 132.32829 7041 ft 286 kts 60°
2026-04-30 19:41 43.47856 132.35233 7924 ft 288 kts 60°
2026-04-30 19:41 43.48897 132.37589 8711 ft 289 kts 47°
2026-04-30 19:41 43.50486 132.39260 9406 ft 288 kts 27°
2026-04-30 19:42 43.52249 132.40619 10182 ft 293 kts 27°
2026-04-30 19:42 43.54065 132.42029 10559 ft 314 kts 27°
2026-04-30 19:42 43.56047 132.43576 10754 ft 341 kts 27°
2026-04-30 19:42 43.58185 132.45255 10984 ft 367 kts 27°
2026-04-30 19:43 43.60453 132.47050 11538 ft 382 kts 27°
2026-04-30 19:43 43.62782 132.48905 12275 ft 392 kts 28°
2026-04-30 19:43 43.65185 132.50819 12972 ft 404 kts 28°
2026-04-30 19:44 43.70098 132.54751 14726 ft 411 kts 28°
2026-04-30 19:44 43.72597 132.56753 15432 ft 418 kts 28°
2026-04-30 19:44 43.75124 132.58777 16293 ft 420 kts 28°
2026-04-30 19:44 43.77680 132.60825 17007 ft 428 kts 29°
2026-04-30 19:45 43.80264 132.62905 17868 ft 430 kts 30°
2026-04-30 19:45 43.82686 132.65253 18546 ft 435 kts 39°
2026-04-30 19:45 43.84982 132.68054 19130 ft 442 kts 42°
2026-04-30 19:45 43.87244 132.70977 19760 ft 447 kts 43°
2026-04-30 19:46 43.89530 132.73945 20415 ft 452 kts 42°
2026-04-30 19:46 43.91855 132.76920 21050 ft 457 kts 41°
2026-04-30 19:46 43.94225 132.79907 21662 ft 462 kts 41°
2026-04-30 19:46 43.96635 132.82909 22283 ft 467 kts 41°
2026-04-30 19:47 43.99077 132.85935 22887 ft 472 kts 41°
2026-04-30 19:47 44.00703 132.87946 23271 ft 475 kts 41°
2026-04-30 19:47 44.04025 132.92059 23959 ft 481 kts 41°
2026-04-30 19:47 44.06535 132.95174 24442 ft 485 kts 41°
2026-04-30 19:48 44.09039 132.98288 24906 ft 490 kts 41°
2026-04-30 19:48 44.11591 133.01467 25357 ft 494 kts 41°
2026-04-30 19:48 44.14165 133.04677 25814 ft 498 kts 41°
2026-04-30 19:48 44.16757 133.07913 26272 ft 502 kts 41°
2026-04-30 19:49 44.19378 133.11185 26712 ft 506 kts 40°
2026-04-30 19:49 44.24969 133.17268 27529 ft 513 kts 34°
2026-04-30 19:49 44.27831 133.20177 27920 ft 517 kts 34°
2026-04-30 19:50 44.30767 133.23146 28314 ft 520 kts 34°
2026-04-30 19:50 44.33711 133.26138 28699 ft 524 kts 34°
2026-04-30 19:50 44.36622 133.29119 29069 ft 527 kts 34°
2026-04-30 19:50 44.38624 133.31179 29322 ft 529 kts 34°
2026-04-30 19:51 44.47761 133.40661 30577 ft 529 kts 34°
2026-04-30 19:51 44.50708 133.43731 30996 ft 528 kts 34°
2026-04-30 19:52 44.53663 133.46810 31371 ft 528 kts 34°
2026-04-30 19:52 44.56611 133.49886 31761 ft 528 kts 34°
2026-04-30 19:52 44.59560 133.52964 32172 ft 526 kts 34°
2026-04-30 19:52 44.62467 133.56003 32591 ft 525 kts 34°
2026-04-30 19:53 44.65401 133.59074 32972 ft 524 kts 34°
2026-04-30 19:53 44.68322 133.62135 33341 ft 524 kts 34°
2026-04-30 19:53 44.71244 133.65201 33720 ft 523 kts 34°
2026-04-30 19:53 44.74149 133.68253 34038 ft 523 kts 34°
2026-04-30 19:54 44.77075 133.71332 34304 ft 523 kts 34°
2026-04-30 19:54 44.79992 133.74405 34556 ft 523 kts 34°
2026-04-30 19:54 44.82873 133.77444 34755 ft 525 kts 34°
2026-04-30 19:54 44.85847 133.80585 34789 ft 528 kts 34°
2026-04-30 19:55 44.91678 133.86756 34806 ft 524 kts 34°
2026-04-30 19:55 44.97563 133.92751 34813 ft 520 kts 32°
2026-04-30 19:56 45.03497 133.98583 34816 ft 519 kts 32°
2026-04-30 19:56 45.09428 134.04448 34821 ft 520 kts 32°
2026-04-30 19:57 45.15340 134.10357 34818 ft 520 kts 32°
2026-04-30 19:57 45.21244 134.16293 34817 ft 521 kts 32°
2026-04-30 19:58 45.27117 134.22212 34812 ft 521 kts 32°
2026-04-30 19:58 45.33032 134.28186 34810 ft 521 kts 32°
2026-04-30 19:59 45.38950 134.34176 34799 ft 521 kts 32°
2026-04-30 20:00 45.47818 134.43183 34796 ft 521 kts 32°
2026-04-30 20:00 45.53712 134.49189 34796 ft 521 kts 32°
2026-04-30 20:01 45.62520 134.58195 34785 ft 521 kts 32°
2026-04-30 20:01 45.68420 134.64246 34782 ft 521 kts 32°
2026-04-30 20:02 45.77260 134.73345 34777 ft 521 kts 33°
2026-04-30 20:03 45.86092 134.82398 34774 ft 518 kts 28°
2026-04-30 20:03 45.92608 134.86517 34789 ft 508 kts 11°
2026-04-30 20:04 45.99497 134.88099 34792 ft 499 kts 359°
2026-04-30 20:05 46.09889 134.89285 34783 ft 502 kts 359°
2026-04-30 20:05 46.20370 134.90628 34777 ft 504 kts
2026-04-30 20:06 46.27369 134.91572 34765 ft 505 kts
2026-04-30 20:06 46.34365 134.92516 34764 ft 504 kts
2026-04-30 20:07 46.41299 134.93448 34764 ft 503 kts
2026-04-30 20:08 46.51754 134.94857 34761 ft 502 kts
2026-04-30 20:08 46.58702 134.95796 34754 ft 500 kts
2026-04-30 20:09 46.65630 134.96735 34753 ft 499 kts
2026-04-30 20:09 46.75956 134.98139 34750 ft 498 kts
2026-04-30 20:10 46.86306 134.99523 34745 ft 497 kts 360°
2026-04-30 20:11 46.96655 135.00789 34736 ft 497 kts 359°
2026-04-30 20:11 47.03561 135.01638 34740 ft 498 kts 359°
2026-04-30 20:12 47.13949 135.02934 34728 ft 499 kts 359°
2026-04-30 20:13 47.20837 135.03799 34731 ft 500 kts 359°
2026-04-30 20:13 47.27782 135.04672 34720 ft 501 kts 359°
2026-04-30 20:14 47.34733 135.05549 34721 ft 501 kts 359°
2026-04-30 20:14 47.41693 135.06428 34712 ft 502 kts 359°
2026-04-30 20:15 47.48656 135.07311 34712 ft 502 kts 359°
2026-04-30 20:15 47.55626 135.08196 34706 ft 503 kts 359°
2026-04-30 20:16 47.62604 135.09085 34704 ft 503 kts 359°
2026-04-30 20:16 47.69540 135.09971 34701 ft 503 kts 359°
2026-04-30 20:17 47.76519 135.10865 34698 ft 503 kts 359°
2026-04-30 20:17 47.83500 135.11763 34695 ft 504 kts 359°
2026-04-30 20:18 47.90456 135.12668 34693 ft 504 kts 359°
2026-04-30 20:18 47.97449 135.13579 34686 ft 504 kts 359°
2026-04-30 20:19 48.04448 135.14486 34681 ft 504 kts 359°
2026-04-30 20:19 48.11445 135.15392 34678 ft 505 kts 359°
2026-04-30 20:20 48.18449 135.16302 34675 ft 505 kts 359°
2026-04-30 20:20 48.25452 135.17216 34660 ft 505 kts 358°
2026-04-30 20:21 48.32462 135.18134 34646 ft 505 kts 358°
2026-04-30 20:21 48.39469 135.19054 34646 ft 505 kts 358°
2026-04-30 20:22 48.46431 135.19970 34644 ft 505 kts 358°
2026-04-30 20:22 48.53300 135.19693 34641 ft 480 kts 336°
2026-04-30 20:22 48.56369 135.17868 34653 ft 468 kts 324°
2026-04-30 20:23 48.59047 135.15186 34640 ft 456 kts 310°
2026-04-30 20:23 48.63643 135.08687 34650 ft 459 kts 310°
2026-04-30 20:24 48.68380 135.02124 34640 ft 460 kts 310°
2026-04-30 20:24 48.73097 134.95671 34635 ft 453 kts 310°
2026-04-30 20:25 48.80065 134.86097 34651 ft 452 kts 310°
2026-04-30 20:26 48.87047 134.76455 34647 ft 452 kts 310°
2026-04-30 20:26 48.94032 134.66778 34655 ft 453 kts 309°
2026-04-30 20:27 49.03317 134.53838 34655 ft 454 kts 309°
2026-04-30 20:28 49.13249 134.41703 34662 ft 464 kts 318°
2026-04-30 20:30 49.26762 134.28171 34658 ft 463 kts 318°
2026-04-30 20:31 49.42830 134.11766 34673 ft 463 kts 317°
2026-04-30 20:32 49.56225 133.98029 34679 ft 463 kts 318°
2026-04-30 20:33 49.64237 133.89779 34687 ft 463 kts 318°
2026-04-30 20:34 49.72278 133.81466 34696 ft 463 kts 318°
2026-04-30 20:35 49.80315 133.73121 34698 ft 464 kts 318°
2026-04-30 20:35 49.87438 133.65696 34709 ft 464 kts 318°
2026-04-30 20:36 49.92790 133.60100 34713 ft 464 kts 318°
2026-04-30 20:37 50.00815 133.51679 34720 ft 463 kts 318°
2026-04-30 20:37 50.06158 133.46055 34719 ft 463 kts 318°
2026-04-30 20:38 50.11482 133.40422 34724 ft 462 kts 318°
2026-04-30 20:38 50.16785 133.34737 34721 ft 461 kts 317°
2026-04-30 20:39 50.24674 133.26233 34736 ft 461 kts 317°
2026-04-30 20:40 50.32590 133.17679 34732 ft 461 kts 317°
2026-04-30 20:40 50.37874 133.11952 34737 ft 462 kts 317°
2026-04-30 20:41 50.45801 133.03329 34743 ft 462 kts 318°
2026-04-30 20:41 50.51088 132.97558 34740 ft 463 kts 317°
2026-04-30 20:42 50.56386 132.91758 34735 ft 464 kts 318°
2026-04-30 20:43 50.64304 132.83061 34742 ft 464 kts 318°
2026-04-30 20:43 50.69599 132.77224 34741 ft 465 kts 317°
2026-04-30 20:44 50.77557 132.68422 34742 ft 466 kts 318°
2026-04-30 20:45 50.88149 132.56649 34740 ft 467 kts 318°
2026-04-30 20:45 50.93456 132.50722 34737 ft 467 kts 318°
2026-04-30 20:46 51.04092 132.38797 34734 ft 468 kts 318°
2026-04-30 20:47 51.12070 132.29807 34734 ft 468 kts 318°
2026-04-30 20:48 51.20012 132.20810 34721 ft 468 kts 317°
2026-04-30 20:48 51.25199 132.14524 34731 ft 466 kts 316°
2026-04-30 20:49 51.30312 132.08141 34726 ft 467 kts 316°
2026-04-30 20:50 51.38011 131.98578 34743 ft 467 kts 316°
2026-04-30 20:50 51.43124 131.92241 34735 ft 468 kts 316°
2026-04-30 20:51 51.48269 131.85848 34742 ft 468 kts 316°
2026-04-30 20:51 51.55975 131.76236 34738 ft 469 kts 316°
2026-04-30 20:52 51.61119 131.69794 34748 ft 469 kts 317°
2026-04-30 20:53 51.68844 131.60086 34751 ft 468 kts 317°
2026-04-30 20:53 51.73981 131.53604 34747 ft 469 kts 317°
2026-04-30 20:54 51.81665 131.43876 34753 ft 469 kts 317°
2026-04-30 20:55 51.89381 131.34055 34760 ft 470 kts 317°
2026-04-30 20:55 51.94526 131.27482 34758 ft 471 kts 317°
2026-04-30 20:56 52.02232 131.17600 34761 ft 472 kts 317°
2026-04-30 20:57 52.09981 131.07618 34757 ft 473 kts 318°
2026-04-30 20:57 52.15112 131.00983 34757 ft 473 kts 318°
2026-04-30 20:58 52.22844 130.90947 34758 ft 474 kts 318°
2026-04-30 20:58 52.28005 130.84221 34760 ft 474 kts 318°
2026-04-30 20:59 52.35719 130.74131 34756 ft 475 kts 318°
2026-04-30 21:00 52.46033 130.60567 34753 ft 475 kts 318°
2026-04-30 21:01 52.53755 130.50357 34747 ft 475 kts 318°
2026-04-30 21:02 52.61429 130.40162 34748 ft 474 kts 318°
2026-04-30 21:02 52.66566 130.33312 34748 ft 474 kts 318°
2026-04-30 21:03 52.71695 130.26451 34750 ft 474 kts 318°
2026-04-30 21:03 52.76823 130.19569 34733 ft 475 kts 318°
2026-04-30 21:04 52.81947 130.12671 34748 ft 475 kts 318°
2026-04-30 21:04 52.89624 130.02296 34737 ft 475 kts 318°
2026-04-30 21:05 52.94708 129.95398 34737 ft 475 kts 318°
2026-04-30 21:05 52.99820 129.88441 34738 ft 475 kts 318°
2026-04-30 21:06 53.04939 129.81452 34730 ft 476 kts 318°
2026-04-30 21:06 53.10045 129.74458 34734 ft 476 kts 318°
2026-04-30 21:07 53.15158 129.67432 34732 ft 476 kts 318°
2026-04-30 21:07 53.20275 129.60379 34733 ft 476 kts 318°
2026-04-30 21:08 53.25351 129.53359 34738 ft 477 kts 318°
2026-04-30 21:08 53.30466 129.46263 34738 ft 477 kts 318°
2026-04-30 21:09 53.35563 129.39169 34740 ft 477 kts 318°
2026-04-30 21:09 53.40671 129.32038 34744 ft 477 kts 318°
2026-04-30 21:10 53.45762 129.24907 34745 ft 477 kts 318°
2026-04-30 21:10 53.50824 129.17792 34747 ft 477 kts 318°
2026-04-30 21:11 53.55913 129.10617 34749 ft 477 kts 318°
2026-04-30 21:11 53.60998 129.03425 34746 ft 477 kts 318°
2026-04-30 21:12 53.66086 128.96205 34749 ft 477 kts 318°
2026-04-30 21:12 53.71163 128.88977 34749 ft 477 kts 318°
2026-04-30 21:13 53.76240 128.81725 34751 ft 477 kts 318°
2026-04-30 21:13 53.81282 128.74500 34754 ft 478 kts 318°
2026-04-30 21:14 53.86351 128.67212 34751 ft 478 kts 318°
2026-04-30 21:14 53.91418 128.59903 34752 ft 478 kts 318°
2026-04-30 21:15 53.96489 128.52563 34756 ft 478 kts 318°
2026-04-30 21:15 54.01521 128.45256 34750 ft 479 kts 318°
2026-04-30 21:16 54.06595 128.37864 34757 ft 479 kts 318°
2026-04-30 21:16 54.11656 128.30465 34762 ft 479 kts 317°
2026-04-30 21:17 54.16708 128.23056 34757 ft 479 kts 317°
2026-04-30 21:17 54.21726 128.15673 34761 ft 479 kts 317°
2026-04-30 21:18 54.26766 128.08231 34759 ft 479 kts 317°
2026-04-30 21:18 54.31810 128.00759 34763 ft 479 kts 317°
2026-04-30 21:19 54.36842 127.93278 34764 ft 479 kts 317°
2026-04-30 21:19 54.41845 127.85817 34757 ft 479 kts 317°
2026-04-30 21:20 54.46867 127.78301 34767 ft 479 kts 317°
2026-04-30 21:20 54.51882 127.70770 34757 ft 479 kts 317°
2026-04-30 21:21 54.56902 127.63206 34762 ft 479 kts 317°
2026-04-30 21:22 54.63573 127.53114 34760 ft 479 kts 317°
2026-04-30 21:23 54.73567 127.37909 34768 ft 479 kts 317°
2026-04-30 21:23 54.81011 127.26300 34782 ft 479 kts 313°
2026-04-30 21:24 54.85270 127.17448 34790 ft 478 kts 307°
2026-04-30 21:24 54.89339 127.08303 34778 ft 478 kts 307°
2026-04-30 21:25 54.95458 126.94581 34785 ft 478 kts 307°
2026-04-30 21:26 55.01573 126.80922 34788 ft 479 kts 307°
2026-04-30 21:27 55.07704 126.67165 34794 ft 479 kts 307°
2026-04-30 21:27 55.11781 126.57970 34801 ft 479 kts 307°
2026-04-30 21:28 55.17889 126.44126 34812 ft 478 kts 307°
2026-04-30 21:29 55.23969 126.30269 34819 ft 478 kts 307°
2026-04-30 21:30 55.34034 126.07157 34833 ft 477 kts 307°
2026-04-30 21:31 55.44071 125.83889 34856 ft 477 kts 307°
2026-04-30 21:32 55.50078 125.69858 34857 ft 477 kts 306°
2026-04-30 21:32 55.54072 125.60483 34861 ft 477 kts 306°
2026-04-30 21:33 55.60027 125.46442 34871 ft 477 kts 306°
2026-04-30 21:34 55.63998 125.37032 34877 ft 477 kts 306°
2026-04-30 21:34 55.69945 125.22873 34888 ft 476 kts 306°
2026-04-30 21:35 55.73894 125.13425 34893 ft 476 kts 306°
2026-04-30 21:35 55.77839 125.03950 34895 ft 477 kts 306°
2026-04-30 21:36 55.81775 124.94459 34903 ft 477 kts 306°
2026-04-30 21:37 55.89609 124.75460 34914 ft 478 kts 306°
2026-04-30 21:37 55.93535 124.65883 34918 ft 478 kts 306°
2026-04-30 21:38 55.97461 124.56269 34921 ft 479 kts 306°
2026-04-30 21:38 56.01385 124.46622 34933 ft 480 kts 306°
2026-04-30 21:39 56.05308 124.36940 34932 ft 480 kts 306°
2026-04-30 21:39 56.09222 124.27241 34941 ft 481 kts 306°
2026-04-30 21:40 56.13131 124.17513 34945 ft 481 kts 306°
2026-04-30 21:40 56.17018 124.07804 34953 ft 482 kts 306°
2026-04-30 21:41 56.20927 123.98000 34957 ft 483 kts 306°
2026-04-30 21:41 56.24834 123.88161 34959 ft 483 kts 306°
2026-04-30 21:42 56.28729 123.78314 34964 ft 483 kts 306°
2026-04-30 21:42 56.32615 123.68449 34972 ft 483 kts 306°
2026-04-30 21:43 56.36494 123.58563 34979 ft 482 kts 306°
2026-04-30 21:43 56.40357 123.48675 34984 ft 482 kts 306°
2026-04-30 21:44 56.44214 123.38763 34986 ft 481 kts 305°
2026-04-30 21:44 56.48034 123.28908 34994 ft 482 kts 305°
2026-04-30 21:45 56.51875 123.18956 34998 ft 481 kts 305°
2026-04-30 21:45 56.55709 123.08981 35003 ft 482 kts 305°
2026-04-30 21:46 56.59537 122.98982 35007 ft 482 kts 305°
2026-04-30 21:46 56.63329 122.89038 35014 ft 482 kts 305°
2026-04-30 21:47 56.67142 122.79011 35011 ft 482 kts 305°
2026-04-30 21:47 56.70956 122.68940 35016 ft 482 kts 305°
2026-04-30 21:48 56.74738 122.58912 35015 ft 482 kts 305°
2026-04-30 21:48 56.78533 122.48806 35022 ft 482 kts 305°
2026-04-30 21:49 56.82348 122.38724 35016 ft 482 kts 308°
2026-04-30 21:49 56.86842 122.29649 35017 ft 481 kts 318°
2026-04-30 21:50 56.91794 122.21517 35026 ft 481 kts 319°
2026-04-30 21:50 56.96792 122.13318 35022 ft 482 kts 319°
2026-04-30 21:51 57.01763 122.05035 35020 ft 482 kts 318°
2026-04-30 21:51 57.06713 121.96708 35024 ft 482 kts 318°
2026-04-30 21:52 57.11637 121.88395 35032 ft 483 kts 318°
2026-04-30 21:52 57.16591 121.80006 35028 ft 483 kts 318°
2026-04-30 21:53 57.21538 121.71597 35031 ft 484 kts 318°
2026-04-30 21:53 57.26488 121.63155 35036 ft 484 kts 318°
2026-04-30 21:54 57.31413 121.54734 35038 ft 484 kts 318°
2026-04-30 21:54 57.36361 121.46247 35036 ft 485 kts 318°
2026-04-30 21:55 57.41298 121.37741 35044 ft 484 kts 318°
2026-04-30 21:55 57.46232 121.29206 35050 ft 485 kts 318°
2026-04-30 21:56 57.51165 121.20640 35057 ft 485 kts 318°
2026-04-30 21:56 57.56089 121.12061 35067 ft 485 kts 318°
2026-04-30 21:57 57.60997 121.03470 35071 ft 486 kts 318°
2026-04-30 21:57 57.65921 120.94822 35075 ft 485 kts 317°
2026-04-30 21:58 57.70836 120.86154 35075 ft 485 kts 317°
2026-04-30 21:58 57.75737 120.77477 35084 ft 485 kts 317°
2026-04-30 21:59 57.80608 120.68819 35079 ft 485 kts 317°
2026-04-30 22:00 57.87947 120.55710 35084 ft 485 kts 317°
2026-04-30 22:00 57.95275 120.42542 35085 ft 485 kts 317°
2026-04-30 22:01 58.00159 120.33723 35087 ft 486 kts 317°
2026-04-30 22:01 58.05033 120.24887 35083 ft 486 kts 316°
2026-04-30 22:02 58.09904 120.16021 35111 ft 486 kts 317°
2026-04-30 22:02 58.14739 120.07185 35100 ft 486 kts 317°
2026-04-30 22:03 58.19599 119.98266 35097 ft 486 kts 317°
2026-04-30 22:03 58.24449 119.89331 35097 ft 486 kts 317°
2026-04-30 22:04 58.29295 119.80367 35095 ft 486 kts 317°
2026-04-30 22:05 58.36524 119.66934 35109 ft 485 kts 316°
2026-04-30 22:05 58.41358 119.57920 35095 ft 486 kts 316°
2026-04-30 22:06 58.46179 119.48898 35099 ft 485 kts 316°
2026-04-30 22:06 58.53410 119.35326 35104 ft 485 kts 316°
2026-04-30 22:07 58.57409 119.27787 35117 ft 485 kts 316°
2026-04-30 22:07 58.62210 119.18699 35112 ft 485 kts 316°
2026-04-30 22:08 58.67008 119.09579 35112 ft 484 kts 316°
2026-04-30 22:08 58.71799 119.00433 35119 ft 485 kts 316°
2026-04-30 22:09 58.76554 118.91320 35120 ft 485 kts 316°
2026-04-30 22:09 58.81335 118.82120 35107 ft 485 kts 316°
2026-04-30 22:10 58.86100 118.72912 35118 ft 484 kts 316°
2026-04-30 22:10 58.90863 118.63670 35127 ft 484 kts 316°
2026-04-30 22:11 58.97963 118.49820 35133 ft 484 kts 316°
2026-04-30 22:12 59.02704 118.40526 35124 ft 484 kts 316°
2026-04-30 22:12 59.07441 118.31199 35124 ft 484 kts 316°
2026-04-30 22:13 59.12175 118.21840 35127 ft 484 kts 315°
2026-04-30 22:13 59.16864 118.12531 35126 ft 484 kts 315°
2026-04-30 22:14 59.21572 118.03146 35133 ft 484 kts 315°
2026-04-30 22:14 59.26282 117.93717 35122 ft 484 kts 315°
2026-04-30 22:15 59.30972 117.84287 35131 ft 484 kts 315°
2026-04-30 22:15 59.35662 117.74819 35127 ft 484 kts 315°
2026-04-30 22:16 59.40325 117.65364 35136 ft 484 kts 315°
2026-04-30 22:17 59.49677 117.46284 35137 ft 484 kts 315°
2026-04-30 22:17 59.56646 117.31957 35145 ft 483 kts 315°
2026-04-30 22:18 59.63611 117.17548 35144 ft 483 kts 314°
2026-04-30 22:19 59.70566 117.03065 35141 ft 483 kts 314°
2026-04-30 22:20 59.77472 116.88593 35142 ft 483 kts 314°
2026-04-30 22:20 59.84387 116.74008 35141 ft 483 kts 314°
2026-04-30 22:21 59.88985 116.64257 35144 ft 483 kts 314°
2026-04-30 22:21 59.93542 116.54552 35143 ft 482 kts 314°
2026-04-30 22:22 59.98117 116.44763 35150 ft 482 kts 314°
2026-04-30 22:22 60.02698 116.34920 35143 ft 482 kts 314°
2026-04-30 22:23 60.07260 116.25077 35150 ft 482 kts 314°
2026-04-30 22:23 60.11810 116.15213 35153 ft 482 kts 314°
2026-04-30 22:24 60.16329 116.05380 35158 ft 482 kts 314°
2026-04-30 22:24 60.20868 115.95460 35154 ft 482 kts 313°
2026-04-30 22:25 60.25404 115.85517 35159 ft 482 kts 313°
2026-04-30 22:25 60.29947 115.75527 35161 ft 482 kts 313°
2026-04-30 22:26 60.36712 115.60605 35161 ft 482 kts 313°
2026-04-30 22:27 60.41233 115.50576 35172 ft 482 kts 313°
2026-04-30 22:27 60.47995 115.35486 35163 ft 482 kts 313°
2026-04-30 22:28 60.54740 115.20334 35159 ft 482 kts 313°
2026-04-30 22:29 60.63704 115.00036 35152 ft 481 kts 313°
2026-04-30 22:31 60.79214 114.64254 35145 ft 481 kts 312°
2026-04-30 22:32 60.90158 114.38384 35138 ft 480 kts 312°
2026-04-30 22:33 61.01030 114.12428 35138 ft 480 kts 312°
2026-04-30 22:35 61.11879 113.86228 35136 ft 479 kts 311°
2026-04-30 22:36 61.22664 113.59878 35126 ft 479 kts 311°
2026-04-30 22:37 61.31229 113.38733 35128 ft 479 kts 311°
2026-04-30 22:38 61.39771 113.17448 35143 ft 479 kts 311°
2026-04-30 22:39 61.46162 113.01392 35133 ft 479 kts 311°
2026-04-30 22:40 61.58846 112.69185 35151 ft 478 kts 311°
2026-04-30 22:41 61.69369 112.42115 35158 ft 478 kts 310°
2026-04-30 22:43 61.81914 112.09418 35153 ft 477 kts 310°
2026-04-30 22:44 61.90253 111.87424 35090 ft 484 kts 312°
2026-04-30 22:45 62.03008 111.53362 35168 ft 493 kts 311°
2026-04-30 22:47 62.15675 111.19015 35174 ft 487 kts 311°
2026-04-30 22:48 62.23980 110.96221 35181 ft 485 kts 311°
2026-04-30 22:49 62.36377 110.61760 35191 ft 486 kts 311°
2026-04-30 22:51 62.48697 110.26988 35197 ft 487 kts 311°
2026-04-30 22:52 62.54836 110.09462 35189 ft 487 kts 311°
2026-04-30 22:53 62.62306 109.87951 35194 ft 486 kts 310°
2026-04-30 22:53 62.68371 109.70335 35192 ft 485 kts 310°
2026-04-30 22:55 62.78401 109.40901 35202 ft 484 kts 310°
2026-04-30 22:56 62.86383 109.17204 35202 ft 483 kts 310°
2026-04-30 22:57 62.96270 108.87505 35206 ft 482 kts 309°
2026-04-30 22:58 63.04130 108.63611 35202 ft 481 kts 309°
2026-04-30 22:59 63.15797 108.27679 35203 ft 480 kts 308°